Date,TemperatureHighF,TemperatureAvgF,TemperatureLowF,DewpointHighF,DewpointAvgF,DewpointLowF,HumidityHigh,HumidityAvg,HumidityLow,PressureMaxIn,PressureMinIn,WindSpeedMaxMPH,WindSpeedAvgMPH,GustSpeedMaxMPH,PrecipitationSumIn
2012-1-1,60,48,32,55,42,26,95,79,45,30.31,30.12,8,1,19,0.14
2012-1-2,38,31,20,26,14,7,86,51,29,30.38,30.20,11,2,22,0.00
2012-1-3,30,21,16,11,9,5,75,61,43,30.58,30.37,8,1,16,0.00
2012-1-4,47,29,13,31,14,6,89,59,21,30.59,30.35,4,0,12,0.00
2012-1-5,57,41,31,33,27,18,83,61,25,30.36,30.27,1,0,7,0.00
2012-1-6,62,40,25,33,27,19,95,67,19,30.33,30.21,3,0,8,0.00
2012-1-7,57,50,38,54,48,31,97,91,74,30.26,30.16,4,0,9,0.29
2012-1-8,55,52,48,55,51,47,98,97,95,30.32,30.24,0,0,2,0.38
2012-1-9,58,55,53,57,54,53,98,97,92,30.27,30.17,4,0,8,0.12
2012-1-10,57,53,50,56,52,50,99,97,90,30.18,29.96,0,0,3,0.07
2012-1-11,54,51,44,54,51,43,99,98,95,29.95,29.75,3,0,9,1.04
2012-1-12,46,40,24,44,37,16,97,89,66,29.99,29.70,15,2,32,0.17
2012-1-13,30,24,20,19,16,13,86,74,61,30.38,29.99,15,1,15,0.00
2012-1-14,44,33,19,24,19,12,88,59,37,30.46,30.25,15,1,15,0.00
2012-1-15,49,35,27,27,24,22,89,66,35,30.60,30.32,6,0,12,0.00
2012-1-16,48,41,26,33,25,19,91,57,37,30.64,30.45,5,0,12,0.00
2012-1-17,56,50,46,55,46,34,97,86,60,30.44,30.06,5,1,16,1.74
2012-1-18,46,33,26,45,29,22,96,85,59,30.27,30.13,4,0,12,0.00
2012-1-19,49,35,24,30,25,22,94,71,44,30.33,30.20,4,0,11,0.01
2012-1-20,51,46,38,50,44,33,98,93,76,30.25,30.11,3,0,9,0.95
2012-1-21,61,54,46,57,53,46,98,94,86,30.15,29.98,12,1,22,1.14
2012-1-22,52,48,45,50,47,44,98,95,90,30.28,30.15,5,0,13,0.21
2012-1-23,54,48,42,50,46,42,98,96,85,30.20,30.08,5,0,12,0.69
2012-1-24,61,45,37,49,38,32,98,80,34,30.39,30.18,0,0,8,0.00
2012-1-25,64,48,29,46,38,28,97,72,38,30.43,30.27,0,0,4,0.00
2012-1-26,59,56,53,57,53,46,96,90,74,30.27,29.76,9,0,17,0.42
2012-1-27,58,46,32,56,41,30,96,84,56,30.17,29.74,5,0,14,0.33
2012-1-28,55,38,28,42,29,17,98,74,44,30.44,30.15,6,0,9,0.01
2012-1-29,50,35,21,22,16,4,89,51,17,30.55,30.44,3,0,11,0.00
2012-1-30,58,38,24,27,22,18,89,59,24,30.60,30.50,2,0,7,0.00
2012-1-31,65,46,28,36,24,13,85,50,14,30.55,30.42,5,0,13,0.00
2012-2-1,57,52,50,52,46,37,97,81,54,30.42,30.21,3,0,11,0.68
2012-2-2,63,52,42,52,43,32,98,74,35,30.41,30.18,1,0,11,0.02
2012-2-3,59,45,30,36,32,25,97,64,31,30.54,30.41,0,0,8,0.00
2012-2-4,58,51,44,54,47,34,97,87,56,30.45,30.14,1,0,14,0.71
2012-2-5,60,53,41,54,49,38,98,87,66,30.24,30.12,5,0,8,0.05
2012-2-6,55,44,36,43,39,34,97,83,60,30.32,30.23,0,0,5,0.00
2012-2-7,59,39,28,36,31,26,97,75,29,30.35,30.27,4,0,6,0.00
2012-2-8,50,40,34,34,32,29,90,73,55,30.37,30.28,1,0,12,0.00
2012-2-9,51,37,29,31,28,25,90,71,42,30.43,30.32,1,0,8,0.00
2012-2-10,52,37,27,33,28,24,95,74,38,30.33,30.11,1,0,8,0.00
2012-2-11,40,28,16,32,18,6,90,68,49,30.46,30.03,8,1,27,0.00
2012-2-12,37,24,13,13,9,6,73,56,33,30.58,30.45,6,0,16,0.00
2012-2-13,49,32,14,25,15,11,91,54,25,30.49,30.26,2,0,10,0.00
2012-2-14,41,37,33,39,35,26,96,91,59,30.28,30.14,3,0,7,0.11
2012-2-15,71,47,34,42,37,30,97,73,22,30.39,30.27,1,0,4,0.00
2012-2-16,60,52,47,54,48,41,97,87,66,30.32,30.14,6,0,7,0.36
2012-2-17,64,48,40,45,38,29,97,71,29,30.27,30.18,5,0,6,0.00
2012-2-18,61,48,34,47,41,33,96,79,51,30.22,30.01,1,0,5,0.10
2012-2-19,48,42,32,47,41,31,97,95,94,30.11,29.78,6,0,9,0.64
2012-2-20,60,40,29,39,31,26,97,74,36,30.39,30.11,2,0,7,0.00
2012-2-21,58,46,38,44,37,27,86,71,58,30.39,30.15,5,0,12,0.02
2012-2-22,60,54,42,54,47,38,92,79,64,30.16,29.71,15,2,21,0.27
2012-2-23,72,63,56,58,55,51,92,76,52,29.79,29.64,9,2,20,0.26
2012-2-24,64,55,36,60,43,15,92,67,24,30.15,29.70,12,2,22,0.22
2012-2-25,51,39,30,23,18,11,67,46,22,30.45,30.14,13,1,24,0.00
2012-2-26,59,40,25,26,21,15,83,51,22,30.57,30.46,3,0,8,0.00
2012-2-27,67,51,40,48,41,27,95,70,46,30.54,30.42,0,0,7,0.00
2012-2-28,71,52,33,53,43,32,96,76,41,30.51,30.34,2,0,8,0.02
2012-2-29,62,59,54,60,57,52,97,94,89,30.34,30.00,9,2,21,0.29
2012-3-1,71,59,47,60,46,31,97,69,26,30.05,29.96,13,1,21,0.02
2012-3-2,68,61,46,62,57,42,97,86,72,29.98,29.75,11,1,17,0.61
2012-3-3,59,48,41,57,37,22,95,71,33,29.95,29.71,4,0,10,1.00
2012-3-4,45,39,32,24,20,15,68,47,33,30.16,29.92,16,1,19,0.00
2012-3-5,50,42,28,28,21,14,68,43,28,30.59,30.09,11,1,18,0.00
2012-3-6,64,41,24,25,21,18,85,52,20,30.69,30.59,1,0,11,0.00
2012-3-7,63,52,43,47,42,22,84,68,41,30.68,30.48,4,0,10,0.00
2012-3-8,70,60,53,56,52,48,95,75,53,30.49,30.20,6,0,12,0.91
2012-3-9,57,48,37,53,38,26,96,70,36,30.47,30.20,4,0,11,0.64
2012-3-10,69,48,27,33,27,22,94,51,21,30.57,30.45,0,0,6,0.00
2012-3-11,69,53,40,45,37,23,77,56,41,30.60,30.44,0,0,8,0.00
2012-3-12,57,55,54,54,51,45,97,87,70,30.48,30.34,6,0,8,0.20
2012-3-13,75,63,54,60,55,49,98,78,40,30.36,30.25,5,0,8,0.06
2012-3-14,79,61,46,60,50,44,98,72,33,30.38,30.27,2,0,7,0.00
2012-3-15,79,62,47,61,52,46,98,74,42,30.42,30.27,2,0,13,0.09
2012-3-16,78,60,48,59,53,47,98,81,42,30.42,30.23,5,0,15,0.20
2012-3-17,75,62,55,63,57,54,98,85,57,30.38,30.25,0,0,5,0.92
2012-3-18,80,65,54,59,53,49,97,70,35,30.38,30.25,5,0,11,0.00
2012-3-19,84,65,50,57,52,48,96,68,30,30.31,30.18,2,0,8,0.00
2012-3-20,84,68,54,60,54,51,94,66,35,30.27,30.15,5,0,10,0.00
2012-3-21,76,66,60,57,55,54,87,69,48,30.29,30.21,2,0,11,0.00
2012-3-22,73,65,60,62,59,54,94,81,65,30.30,30.19,0,0,7,0.02
2012-3-23,66,62,58,62,60,56,96,91,79,30.21,30.01,5,0,13,0.41
2012-3-24,65,58,47,60,51,44,96,79,52,30.02,29.90,4,0,13,0.29
2012-3-25,68,56,46,47,46,43,92,70,45,30.06,29.93,7,0,14,0.00
2012-3-26,78,62,50,51,48,44,94,62,30,30.18,30.04,3,0,10,0.00
2012-3-27,77,58,43,46,44,40,97,63,28,30.33,30.17,3,0,9,0.00
2012-3-28,75,63,51,55,50,42,88,63,45,30.30,30.10,5,0,12,0.00
2012-3-29,78,68,58,56,53,50,80,60,41,30.10,29.99,5,0,12,0.00
2012-3-30,76,61,50,61,54,49,96,83,45,30.08,29.95,10,0,15,0.28
2012-3-31,77,64,56,60,57,53,97,81,47,29.99,29.89,1,0,8,0.38
2012-4-1,82,64,46,58,53,44,98,71,27,30.01,29.90,5,0,13,0.00
2012-4-2,86,73,62,62,58,55,86,63,37,29.96,29.87,6,0,9,0.00
2012-4-3,78,64,57,68,60,55,96,87,58,30.04,29.93,6,0,15,1.59
2012-4-4,80,66,51,61,56,50,98,75,45,30.01,29.80,4,0,14,0.00
2012-4-5,72,62,54,61,56,51,97,81,54,29.82,29.70,2,0,6,0.19
2012-4-6,67,55,44,55,48,39,97,80,48,30.20,29.81,2,0,5,0.00
2012-4-7,72,52,36,49,41,35,98,71,37,30.38,30.20,4,0,7,0.00
2012-4-8,76,57,40,49,43,38,95,64,28,30.33,30.18,5,0,9,0.00
2012-4-9,75,59,40,41,32,13,87,42,10,30.23,30.10,15,1,15,0.00
2012-4-10,66,58,48,46,36,28,64,45,36,30.15,30.05,5,0,15,0.00
2012-4-11,63,50,40,32,24,18,54,37,21,30.26,30.08,13,1,21,0.00
2012-4-12,68,44,26,34,27,24,91,58,21,30.37,30.25,4,0,6,0.00
2012-4-13,74,52,32,40,34,28,95,57,21,30.37,30.29,4,0,7,0.00
2012-4-14,78,62,50,45,42,34,67,49,32,30.40,30.25,4,0,11,0.00
2012-4-15,78,63,50,59,52,41,83,68,47,30.30,30.20,7,0,10,0.00
2012-4-16,76,65,58,62,59,57,96,81,59,30.30,30.19,5,0,20,0.13
2012-4-17,74,61,56,63,58,54,98,89,60,30.30,30.17,5,0,6,0.09
2012-4-18,60,57,54,59,56,54,98,96,90,30.18,30.12,0,0,1,1.52
2012-4-19,73,60,54,58,54,52,98,84,53,30.16,30.05,3,0,5,0.00
2012-4-20,68,59,53,58,55,52,96,87,68,30.08,29.93,1,0,6,0.00
2012-4-21,71,60,54,62,56,51,98,88,63,29.97,29.80,2,0,6,0.42
2012-4-22,59,50,40,50,42,33,94,77,44,29.87,29.75,10,0,14,0.00
2012-4-23,56,44,36,33,28,23,80,57,31,30.00,29.84,10,1,19,0.00
2012-4-24,62,50,43,45,34,25,91,56,35,30.04,29.96,11,1,14,0.01
2012-4-25,78,65,45,59,51,42,93,61,47,30.03,29.95,8,1,17,0.00
2012-4-26,78,67,60,61,57,54,93,71,48,30.02,29.89,9,2,24,0.08
2012-4-27,73,66,60,67,63,58,96,88,73,30.13,30.00,0,0,4,0.04
2012-4-28,82,69,58,64,60,55,98,76,45,30.19,30.10,2,0,8,0.00
2012-4-29,86,68,54,63,57,53,97,71,37,30.23,30.15,2,0,3,0.00
2012-4-30,87,69,55,63,57,53,97,70,37,30.27,30.15,5,0,11,0.00
2012-5-1,87,72,58,66,61,56,94,72,41,30.23,30.11,0,0,5,0.00
2012-5-2,89,73,61,66,62,58,93,70,38,30.22,30.12,0,0,5,0.00
2012-5-3,81,69,58,66,62,57,96,79,53,30.22,30.14,0,0,3,0.09
2012-5-4,83,69,62,68,63,61,97,84,53,30.20,30.07,2,0,6,0.01
2012-5-5,88,72,58,66,60,57,98,72,37,30.12,29.97,3,0,11,0.00
2012-5-6,91,70,57,65,60,54,97,73,28,30.07,29.96,2,0,7,0.87
2012-5-7,76,66,60,68,63,59,98,92,74,30.08,29.96,0,0,3,0.52
2012-5-8,79,67,62,67,63,60,96,85,56,30.02,29.91,2,0,9,0.00
2012-5-9,67,60,52,61,56,50,97,89,60,29.96,29.87,2,0,9,0.26
2012-5-10,71,58,48,50,45,42,95,67,39,30.10,29.94,5,0,11,0.00
2012-5-11,77,57,39,53,47,38,97,73,38,30.30,30.10,1,0,4,0.00
2012-5-12,72,62,50,61,56,48,93,82,68,30.39,30.27,1,0,6,0.00
2012-5-13,61,58,56,60,58,55,97,96,87,30.29,30.11,0,0,8,2.17
2012-5-14,76,65,59,68,62,58,98,90,68,30.11,30.00,1,0,7,0.19
2012-5-15,77,64,59,65,61,57,98,89,63,30.08,30.02,0,0,3,0.01
2012-5-16,80,64,53,62,56,52,98,78,42,30.11,30.01,2,0,5,0.00
2012-5-17,83,64,49,62,56,48,98,77,36,30.11,30.01,0,0,5,0.00
2012-5-18,79,62,54,63,58,53,97,88,53,30.19,30.10,0,0,2,0.25
2012-5-19,82,63,52,66,58,52,99,88,50,30.26,30.14,4,0,5,0.19
2012-5-20,84,67,53,67,59,53,98,79,43,30.26,30.12,1,0,10,0.00
2012-5-21,79,64,56,65,59,55,97,86,58,30.15,30.02,1,0,4,0.05
2012-5-22,75,63,57,64,59,55,98,87,63,30.07,29.94,3,0,7,0.01
2012-5-23,77,65,56,65,59,55,97,84,58,30.01,29.93,4,0,5,0.01
2012-5-24,85,68,54,63,58,50,98,74,32,30.10,29.99,1,0,7,0.00
2012-5-25,90,73,59,69,62,57,96,73,40,30.20,30.09,1,0,5,0.00
2012-5-26,92,75,58,68,64,57,98,71,42,30.25,30.14,1,0,5,0.00
2012-5-27,91,73,61,72,64,60,97,76,47,30.19,30.08,0,0,3,0.00
2012-5-28,91,76,65,68,64,62,93,71,41,30.11,29.99,1,0,4,0.00
2012-5-29,83,74,65,71,66,64,96,79,58,30.02,29.86,10,0,11,0.56
2012-5-30,88,72,59,67,60,53,98,71,31,29.96,29.89,1,0,6,0.07
2012-5-31,83,65,52,69,58,51,96,81,57,29.98,29.86,0,0,3,0.00
2012-6-14,86,76,67,68,65,62,87,70,54,30.19,30.08,0,0,2,0.00
2012-6-15,84,71,60,69,63,58,93,78,55,30.27,30.14,0,0,5,0.00
2012-6-16,82,69,58,66,61,56,91,76,53,30.34,30.18,0,0,3,0.00
2012-6-17,83,70,59,65,61,56,93,74,51,30.25,30.09,0,0,3,0.00
2012-6-18,85,70,56,64,60,55,97,74,45,30.19,30.10,1,0,7,0.00
2012-6-19,88,72,56,67,61,55,96,73,42,30.27,30.19,0,0,5,0.00
2012-6-20,90,72,57,69,63,56,97,76,44,30.28,30.16,0,0,7,0.00
2012-6-21,88,73,60,73,66,59,97,78,50,30.20,30.01,0,0,3,0.00
2012-6-22,91,76,64,72,67,63,96,76,48,30.08,29.93,0,0,5,0.00
2012-6-23,92,76,62,72,66,60,97,75,37,30.05,29.98,0,0,3,0.00
2012-6-24,93,77,63,74,67,62,97,75,40,30.06,29.93,3,0,4,0.00
2012-6-25,95,78,65,72,66,63,97,71,38,29.96,29.77,4,0,6,0.00
2012-6-26,90,73,61,65,59,46,95,65,30,29.94,29.81,3,0,6,0.00
2012-6-27,90,69,51,61,54,49,93,63,26,30.12,29.95,2,0,4,0.00
2012-6-28,95,74,53,68,59,51,94,65,30,30.18,30.07,1,0,5,0.00
2012-6-29,102,80,61,73,64,57,93,63,25,30.08,29.93,1,0,6,0.00
2012-6-30,103,81,63,74,66,61,95,66,26,30.01,29.93,0,0,5,0.00
2012-7-1,101,83,65,74,67,63,92,62,31,30.07,29.96,3,0,13,0.00
2012-7-2,89,76,64,75,68,57,96,79,45,30.18,30.03,2,0,9,1.37
2012-7-3,91,77,65,74,68,63,95,76,49,30.15,30.01,2,0,14,0.00
2012-7-4,93,74,63,74,67,62,97,82,40,30.13,30.05,2,0,10,0.04
2012-7-5,96,77,62,74,66,60,98,75,40,30.12,30.00,1,0,3,0.00
2012-7-6,98,76,62,71,66,60,96,74,39,30.09,30.00,4,0,5,0.43
2012-7-7,90,76,65,80,71,64,98,84,58,30.13,30.03,0,0,4,0.03
2012-7-8,92,78,67,74,70,66,96,76,49,30.13,29.97,0,0,6,0.00
2012-7-9,90,76,66,75,69,65,97,80,51,30.05,29.97,1,0,11,0.00
2012-7-10,87,73,64,76,69,64,98,87,62,30.09,29.99,3,0,15,0.92
2012-7-11,81,70,66,72,68,66,98,92,71,30.15,30.06,0,0,4,1.34
2012-7-12,72,68,65,71,67,65,98,96,92,30.19,30.11,0,0,1,0.89
2012-7-13,84,72,65,75,69,65,99,92,73,30.23,30.15,0,0,4,0.59
2012-7-14,86,75,69,75,71,68,98,87,64,30.26,30.16,3,0,9,0.01
2012-7-15,84,73,68,76,70,67,97,90,70,30.28,30.17,4,0,4,0.24
2012-7-16,90,75,64,74,68,63,98,82,51,30.21,30.05,0,0,4,0.00
2012-7-17,90,74,66,74,70,65,98,86,53,30.11,30.00,0,0,3,0.00
2012-7-18,92,75,65,75,69,64,98,84,54,30.13,30.02,3,0,6,0.25
2012-7-19,89,76,67,76,71,67,98,85,58,30.17,30.04,0,0,6,0.01
2012-7-20,86,76,68,73,70,66,96,83,57,30.07,30.00,1,0,9,0.00
2012-7-21,78,72,67,75,70,66,98,93,76,30.18,30.04,1,0,9,0.42
2012-7-22,89,76,65,73,69,65,99,82,53,30.29,30.18,0,0,6,0.00
2012-7-23,92,76,64,76,69,63,98,81,53,30.30,30.16,1,0,4,0.00
2012-7-24,91,77,65,75,70,65,98,81,54,30.19,30.02,3,0,5,0.00
2012-7-25,92,78,66,76,71,65,98,81,55,30.10,29.99,0,0,3,0.00
2012-7-26,91,78,66,75,71,66,98,79,53,30.05,29.93,0,0,4,0.00
2012-7-27,90,78,68,75,71,67,98,81,51,30.05,29.96,1,0,11,0.01
2012-7-28,92,76,66,73,69,65,98,82,47,30.12,30.04,1,0,5,0.01
2012-7-29,88,73,60,68,64,60,98,75,45,30.13,30.04,3,0,7,0.00
2012-7-30,91,75,60,70,65,59,97,74,41,30.09,29.99,0,0,4,0.00
2012-7-31,81,74,68,75,70,66,97,88,78,30.06,29.94,0,0,4,0.50
2012-8-1,90,71,63,76,67,63,98,88,56,30.07,29.95,0,0,8,0.09
2012-8-2,90,74,60,77,68,59,99,84,56,30.05,29.95,0,0,4,0.00
2012-8-3,83,73,67,76,70,66,98,90,72,30.10,29.98,1,0,6,0.46
2012-8-4,82,73,68,75,70,68,98,91,77,30.23,30.09,0,0,3,0.00
2012-8-5,89,76,69,74,70,67,96,84,57,30.29,30.16,0,0,5,0.00
2012-8-6,87,74,68,74,70,67,98,87,61,30.21,30.07,0,0,4,0.03
2012-8-7,81,73,68,75,71,68,98,94,74,30.11,30.04,2,0,5,1.50
2012-8-8,90,75,67,74,70,66,99,86,52,30.12,30.02,0,0,3,0.01
2012-8-9,81,70,65,75,68,64,98,95,77,30.08,29.93,4,0,10,0.02
2012-8-10,71,25,69,69,-39,-100,97,35,87,29.98,29.91,0,-636,0,0.00
2012-8-11,-200,0,200,-100,-100,-100,0,0,100,30.11,29.94,0,-999,0,0.00
2012-8-12,82,18,59,65,-58,-100,95,21,46,30.17,30.05,0,-738,0,0.00
2012-8-13,78,62,51,65,58,50,98,89,57,30.18,30.08,0,0,2,0.12
2012-8-14,82,70,57,73,66,56,98,89,69,30.12,29.99,0,0,9,0.13
2012-8-15,85,71,61,70,65,61,98,83,51,30.09,30.00,3,0,6,0.00
2012-8-16,87,70,56,68,62,56,98,80,46,30.15,30.02,0,0,2,0.00
2012-8-17,78,69,62,69,66,61,98,89,69,30.12,29.98,1,0,2,0.21
2012-8-18,81,69,62,73,66,62,97,89,67,30.04,29.93,0,0,2,0.45
2012-8-19,75,68,64,69,66,63,97,92,78,29.98,29.93,0,0,5,0.48
2012-8-20,81,66,55,64,58,54,97,80,44,30.09,29.97,0,0,3,0.01
2012-8-21,84,65,51,61,56,50,96,76,34,30.18,30.09,0,0,3,0.00
2012-8-22,84,66,52,62,56,51,95,76,38,30.23,30.15,3,0,4,0.00
2012-8-23,86,67,54,67,59,52,95,78,40,30.26,30.16,0,0,3,0.00
2012-8-24,85,69,60,69,63,58,94,83,55,30.24,30.14,1,0,4,0.04
2012-8-25,86,69,57,70,62,55,96,82,48,30.25,30.16,0,0,2,0.71
2012-8-26,87,70,59,71,64,57,94,81,47,30.28,30.15,0,0,5,0.00
2012-8-27,90,71,59,72,64,57,92,80,42,30.23,30.07,0,0,1,0.00
2012-8-28,75,70,64,72,66,62,92,90,84,30.11,30.03,0,0,0,0.29
2012-8-29,84,73,68,75,68,64,91,86,64,30.11,30.01,0,0,6,0.01
2012-8-30,81,73,69,74,69,66,90,87,76,30.24,30.06,0,0,5,0.00
2012-8-31,84,74,68,74,69,65,90,84,67,30.32,30.21,0,0,1,0.00
2012-9-1,88,75,65,75,68,61,90,80,56,30.28,30.13,1,0,6,0.00
2012-9-2,85,74,66,74,68,63,89,83,69,30.17,29.98,5,0,14,0.85
2012-9-3,76,70,67,70,66,63,89,87,81,30.05,29.97,1,0,7,0.35
2012-9-4,76,71,69,72,68,65,90,88,86,30.01,29.97,0,0,2,0.25
2012-9-5,83,73,68,74,68,64,90,85,71,30.04,29.95,0,0,4,0.01
2012-9-6,88,74,66,74,68,63,90,81,57,30.06,29.96,0,0,3,0.00
2012-9-7,89,72,60,74,65,56,91,79,53,30.08,29.92,0,0,3,0.00
2012-9-8,78,69,59,70,64,56,90,86,71,29.98,29.83,3,0,7,0.01
2012-9-9,77,61,48,57,52,45,91,75,43,30.16,29.96,2,0,7,0.00
2012-9-10,81,60,47,63,53,44,90,79,43,30.26,30.16,0,0,5,0.00
2012-9-11,77,62,51,64,56,48,90,80,57,30.38,30.26,0,0,2,0.00
2012-9-12,80,64,54,63,57,50,90,78,51,30.44,30.33,0,0,1,0.00
2012-9-13,80,63,54,60,56,50,90,78,47,30.43,30.32,0,0,2,0.00
2012-9-14,75,63,55,65,57,51,90,82,62,30.37,30.28,0,0,2,0.00
2012-9-15,80,64,52,68,58,49,90,81,55,30.33,30.20,0,0,1,0.00
2012-9-16,77,66,58,68,61,54,90,83,64,30.23,30.12,0,0,4,0.00
2012-9-17,76,68,64,69,64,60,90,87,78,30.16,29.85,11,0,11,1.02
2012-9-18,69,65,54,65,62,50,90,88,83,30.03,29.77,5,0,16,1.84
2012-9-19,76,59,50,65,54,47,91,84,56,30.20,30.03,1,0,8,0.00
2012-9-20,74,63,53,64,57,49,90,83,65,30.23,30.13,1,0,7,0.00
2012-9-21,78,63,53,66,56,49,90,80,50,30.20,30.07,2,0,10,0.00
2012-9-22,80,68,59,66,58,-100,88,73,59,30.16,30.05,3,-10,10,0.00
2012-9-23,74,58,44,51,44,36,90,66,26,30.29,30.15,4,0,11,0.00
2012-9-24,76,54,36,56,44,33,90,72,37,30.34,30.25,2,0,3,0.00
2012-9-25,79,59,43,63,51,39,90,77,48,30.36,30.27,0,0,3,0.00
2012-9-26,81,63,50,67,56,46,90,78,50,30.33,30.23,0,0,1,0.00
2012-9-27,83,64,51,67,57,47,90,80,55,30.34,30.21,0,0,2,0.00
2012-9-28,81,65,54,68,58,50,90,79,52,30.26,30.10,0,0,2,0.00
2012-9-29,75,65,60,67,60,56,90,85,70,30.14,29.97,0,0,1,0.04
2012-9-30,72,60,49,63,55,45,90,85,72,30.01,29.90,0,0,0,0.34
2012-10-1,67,63,61,63,59,57,89,86,86,29.90,29.73,0,0,8,2.82
2012-10-2,66,63,60,62,60,56,90,89,86,30.07,29.76,1,0,14,0.07
2012-10-3,72,61,54,61,56,51,90,85,63,30.30,30.07,0,0,4,0.00
2012-10-4,76,59,49,62,53,45,90,80,54,30.41,30.31,0,0,5,0.00
2012-10-5,78,59,46,63,52,43,90,79,45,30.36,30.14,0,0,3,0.01
2012-10-6,73,58,50,63,53,46,90,85,70,30.18,30.04,0,0,5,0.00
2012-10-7,58,50,44,54,46,40,90,86,70,30.22,30.09,3,0,5,0.00
2012-10-8,50,47,44,47,44,41,90,89,86,30.30,30.19,0,0,1,0.06
2012-10-9,64,51,44,54,46,40,90,84,62,30.29,30.18,0,0,4,0.00
2012-10-10,65,54,42,55,49,39,90,84,66,30.30,30.20,4,0,4,0.00
2012-10-11,73,52,38,52,44,35,90,78,34,30.40,30.30,0,0,2,0.01
2012-10-12,69,58,52,61,54,48,89,86,74,30.39,30.33,0,0,4,0.02
2012-10-13,73,59,50,56,51,46,90,78,54,30.47,30.36,0,0,4,0.01
2012-10-14,69,61,54,62,57,50,88,85,74,30.37,30.09,9,0,9,0.00
2012-10-15,69,61,48,61,53,44,90,76,47,30.09,29.97,5,0,10,0.58
2012-10-16,69,51,42,48,42,36,90,74,31,30.12,30.00,0,0,2,0.00
2012-10-17,72,53,39,51,44,36,90,73,41,30.10,29.93,0,0,4,0.00
2012-10-18,66,58,54,60,53,36,90,82,47,29.96,29.86,2,0,10,0.20
2012-10-19,65,53,38,44,36,31,90,57,29,29.93,29.84,11,0,12,0.00
2012-10-20,66,52,41,48,43,38,90,72,51,30.11,29.93,1,0,5,0.00
2012-10-21,74,51,36,49,42,32,90,74,37,30.31,30.12,1,0,2,0.00
2012-10-22,79,56,40,57,46,37,89,74,41,30.37,30.24,0,0,2,0.00
2012-10-23,78,58,44,55,48,41,89,73,40,30.33,30.21,0,0,0,0.00
2012-10-24,82,58,42,56,47,38,89,72,35,30.34,30.19,0,0,0,0.00
2012-10-25,75,57,43,60,50,39,89,78,52,30.25,30.16,1,0,7,0.00
2012-10-26,75,62,51,61,55,48,89,80,54,30.19,30.04,0,0,1,0.00
2012-10-27,58,53,47,54,50,44,90,88,85,30.04,29.92,2,0,9,0.00
2012-10-28,46,44,39,44,41,37,91,90,89,30.03,29.91,7,0,15,0.41
2012-10-29,43,40,38,37,34,22,91,79,46,30.03,29.87,10,1,16,0.03
2012-10-30,47,41,36,30,26,20,72,57,39,29.93,29.78,7,1,16,0.00
2012-10-31,57,46,37,25,21,19,55,39,24,30.00,29.91,5,0,17,0.00
2012-11-1,59,44,36,27,22,16,69,44,21,30.11,30.01,5,0,9,0.00
2012-11-2,69,52,36,46,36,28,78,56,39,30.15,30.04,6,0,13,0.00
2012-11-3,76,55,34,56,43,31,90,67,36,30.24,30.11,11,0,11,0.00
2012-11-4,66,57,41,55,47,36,84,71,56,30.12,30.03,3,0,12,0.00
2012-11-5,61,45,32,39,33,26,90,67,27,30.21,30.10,3,0,5,0.01
2012-11-6,51,44,40,42,40,38,90,85,68,30.12,30.04,0,0,3,0.23
2012-11-7,46,41,40,42,38,37,91,89,84,30.18,30.00,4,0,6,0.25
2012-11-8,59,43,32,40,35,29,91,75,39,30.35,30.19,7,0,10,0.01
2012-11-9,68,43,27,38,31,24,90,69,26,30.48,30.35,1,0,3,0.00
2012-11-10,71,48,30,42,34,27,90,64,25,30.52,30.40,2,0,4,0.00
2012-11-11,62,53,41,52,45,35,83,74,63,30.53,30.41,3,0,11,0.00
2012-11-12,62,56,40,57,52,37,90,86,82,30.42,30.25,7,0,11,0.54
2012-11-13,54,38,29,37,31,27,91,78,46,30.50,30.38,2,0,9,0.01
2012-11-14,54,39,26,38,31,23,90,76,48,30.56,30.43,0,0,1,0.00
2012-11-15,59,45,35,43,38,32,89,76,51,30.43,30.33,0,0,2,0.00
2012-11-16,62,41,28,41,31,24,90,72,31,30.49,30.39,0,0,3,0.00
2012-11-17,65,42,28,35,30,25,90,69,30,30.59,30.48,0,0,4,0.00
2012-11-18,66,44,27,45,34,24,89,70,37,30.57,30.45,0,0,2,0.00
2012-11-19,66,45,30,46,37,27,89,74,46,30.49,30.35,0,0,2,0.00
2012-11-20,66,48,39,43,39,36,89,73,43,30.35,30.19,1,0,3,0.00
2012-11-21,67,48,34,45,39,31,90,73,43,30.32,30.23,0,0,4,0.00
2012-11-22,67,46,31,45,36,28,89,72,38,30.40,30.29,0,0,3,0.00
2012-11-23,66,46,32,49,38,29,89,77,50,30.33,30.16,2,0,11,0.00
2012-11-24,44,35,28,32,23,18,84,64,37,30.29,30.19,5,0,9,0.00
2012-11-25,58,36,21,24,16,4,88,53,12,30.35,30.24,2,0,3,0.00
2012-11-26,66,45,26,42,24,18,82,50,22,30.39,30.28,3,0,7,0.03
2012-11-27,48,45,38,45,42,36,91,88,84,30.37,30.22,2,0,5,0.09
2012-11-28,55,40,29,36,30,17,91,71,26,30.53,30.36,0,0,7,0.00
2012-11-29,60,39,24,37,29,22,90,72,33,30.61,30.48,1,0,7,0.00
2012-11-30,58,41,27,45,35,25,91,82,60,30.55,30.43,0,0,7,0.00
2012-12-1,65,47,33,50,40,30,89,79,53,30.53,30.43,1,0,4,0.00
2012-12-2,67,54,43,54,48,40,89,81,54,30.49,30.36,4,0,12,0.00
2012-12-3,69,52,38,54,44,34,89,77,51,30.46,30.35,2,0,6,0.00
2012-12-4,66,55,42,54,48,39,89,78,60,30.44,30.31,2,0,8,0.00
2012-12-5,60,55,48,56,51,45,90,87,79,30.31,30.22,0,0,6,0.33
2012-12-6,56,51,47,50,43,37,90,75,60,30.30,30.22,0,0,1,0.01
2012-12-7,60,52,47,54,48,43,90,86,79,30.22,30.08,1,0,5,0.00
2012-12-8,60,56,51,56,52,48,90,88,85,30.15,30.09,1,0,5,0.03
2012-12-9,62,58,55,57,54,53,90,88,83,30.18,30.04,3,0,8,0.01
2012-12-10,58,55,42,55,52,39,91,88,86,30.04,29.79,7,0,12,1.56
2012-12-11,41,34,29,39,31,27,91,90,86,30.32,29.94,5,0,8,0.00
2012-12-12,49,36,30,42,33,28,91,88,74,30.42,30.31,0,0,1,0.00
2012-12-13,57,39,29,40,33,26,91,80,44,30.52,30.39,0,0,4,0.00
2012-12-14,61,39,25,39,31,23,91,76,40,30.54,30.37,1,0,2,0.00
2012-12-15,58,47,35,45,40,32,89,75,58,30.37,30.19,3,0,10,0.00
2012-12-16,54,51,49,50,47,43,89,86,75,30.18,29.98,3,0,6,1.41
2012-12-17,55,52,49,52,48,45,91,87,83,29.96,29.79,6,0,15,0.48
2012-12-18,56,45,33,48,36,25,89,74,31,30.12,29.82,2,0,12,0.00
2012-12-19,65,47,32,49,39,29,89,76,52,30.26,30.13,0,0,4,0.00
2012-12-20,53,45,35,46,39,27,90,80,60,30.19,29.76,9,1,20,1.92
2012-12-21,38,32,28,28,21,14,77,65,52,30.32,29.93,12,2,17,0.00
2012-12-22,50,32,24,20,15,11,83,53,24,30.44,30.30,4,0,12,0.00
2012-12-23,53,37,21,39,25,18,89,66,34,30.39,30.20,4,0,11,0.00
2012-12-24,52,47,42,49,43,27,90,87,47,30.20,29.95,5,0,10,1.21
2012-12-25,51,47,45,48,44,41,91,88,86,30.12,29.87,1,0,6,0.37
2012-12-26,51,40,30,48,36,27,91,89,86,30.06,29.56,10,1,19,0.63
2012-12-27,37,31,26,31,27,24,91,87,75,30.26,30.07,5,0,14,0.00
2012-12-28,51,36,25,37,30,23,91,81,48,30.29,30.03,0,0,1,0.39
2012-12-29,38,34,29,36,31,24,91,88,82,30.35,29.93,5,0,14,0.21
2012-12-30,42,30,23,26,23,19,90,77,50,30.60,30.34,6,0,21,0.02
2012-12-31,50,36,23,34,25,20,91,69,37,30.57,30.29,0,0,4,0.01
2013-1-1,50,48,43,47,44,34,90,86,71,30.28,30.07,10,0,15,1.24